Погода в Шмелеве

Россия / Кировская область     58°15′32″N   47°48′27″E
темп.,
°C
ветер,
м/с
пор.,
м/с
влажн.,
%
обл.,
%
осадки,
мм/ч
давл.,
гПа
погр.,
м
19 апреля, пн
пн1900:00−1всв5137853 0.0 1032444
03:00−2всв512805 0.0 1033393
06:00−3всв412845 0.0 1034380
09:00+2в69610 0.0 1034971
12:00+4в68494 0.0 10341436
15:00+5в57475 0.0 10331429
18:00+3в48610 0.0 1033317
21:00−1в311720 0.0 1034214
20 апреля, вт
вт2000:00−2в38770 0.0 1035161
03:00−3в38772 0.0 1035149
06:00−1в39670 0.0 1035233
09:00+5вюв57400 0.0 1034923
12:00+7вюв56350 0.0 10331333
15:00+8вюв56380 0.0 10311291
18:00+5вюв37570 0.0 1030183
21:00+1вюв38735 0.0 1030141
21 апреля, ср
ср2100:00+1вюв4136812 0.0 1028286
03:000вюв5146570 0.0 1027384
06:00+2вюв61757100 0.0 1024730
09:00+5юв81747100 0.0 1022958
12:00+6юв81751100 0.1 10201145
15:00+2юв81895100 2.6 1019950
18:00+2ююв81790100 1.4 1018915
21:00+2ююв71695100 1.8 1018853
22 апреля, чт
чт2200:00+3ююв61494100 0.2 1018670
03:00+3ююв51296100 0.2 1019539
06:00+3ю51196100 0.0 1020534
09:00+5ю589099 0.1 1021555
12:00+7ю5776100 0.0 1021906
15:00+9ююв597997 0.1 1020939
18:00+8ю5118889 0.1 1021714
21:00+6ю5119573 0.4 1022404
23 апреля, пт
пт2300:00+5ююв4109764 0.0 1023308
03:00+5ююв3698100 0.0 1023188
06:00+5ююв3797100 0.0 1023233
09:00+9ю478034 0.0 1023507
12:00+13ю576459 0.4 1023926
15:00+14ю465534 1.2 10221426
18:00+12ююв37675 0.3 1021220
21:00+7юв310856 0.4 1022251